Farmington, NM

7:57 AM MDT on September 20, 2017 (GMT -0600)
Four Corners Regional

Weather History for KFMN - June, 2013

Change the Weather History Date:

Sunday, June 23, 2013

  Actual Average Record
Temperature  
Mean Temperature 73 °F -  
Max Temperature 91 °F 89 °F 99 °F (1988)
Min Temperature 55 °F 52 °F 46 °F (1999)
Cooling Degree Days 8    
Growing Degree Days 23 (Base 50)    
Moisture  
Dew Point 12 °F    
Average Humidity 11    
Maximum Humidity 25    
Minimum Humidity 4    
Precipitation  
Precipitation 0.00 in - - ()
Sea Level Pressure  
Sea Level Pressure 29.77 in    
Wind  
Wind Speed 6 mph (NNW)    
Max Wind Speed 14 mph    
Max Gust Speed 22 mph    
Visibility 10 miles    
Events      
Averages and records for this station are not official NWS values.
T = Trace of Precipitation, MM = Missing Value Source: NWS Daily Summary

Daily Weather History Graph

Daily Weather History Graph

Search for Another Location

Airport or City:

Trip Planner

Search our weather history database for the weather conditions in past years. The results will help you decide how hot, cold, wet, or windy it might be!

Date:

Astronomy

Jun. 23, 2013 Rise Set
Actual Time 5:54 AM MDT 8:35 PM MDT
Civil Twilight 5:24 AM MDT 9:06 PM MDT
Nautical Twilight 4:45 AM MDT 9:44 PM MDT
Astronomical Twilight 4:03 AM MDT 10:27 PM MDT
Moon 8:52 PM MDT (6/23) 6:14 AM MDT (6/23)
Length of Visible Light 15h 42m
Length of Day
14h 40m
Full, 100% of the Moon is Illuminated
Jun 23
Full
Jun 29
Last Quarter
Jul 8
New
Jul 15
First Quarter
Jul 22
Full

Hourly Weather History & Observations

Time (MDT) Temp. Dew Point Humidity Pressure Visibility Wind Dir Wind Speed Gust Speed Precip Events Conditions
12:53 AM 57.0 °F 10.0 °F 15% 29.82 in 10.0 mi NNE 3.5 mph - N/A   Clear
1:53 AM 55.9 °F 10.9 °F 17% 29.81 in 10.0 mi NE 8.1 mph - N/A   Clear
2:53 AM 55.0 °F 12.0 °F 18% 29.82 in 10.0 mi East 3.5 mph - N/A   Clear
3:53 AM 55.0 °F 18.0 °F 23% 29.82 in 10.0 mi NE 3.5 mph - N/A   Clear
4:53 AM 50.0 °F 12.9 °F 23% 29.82 in 10.0 mi NE 4.6 mph - N/A   Clear
5:53 AM 55.0 °F 19.9 °F 25% 29.83 in 10.0 mi East 12.7 mph - N/A   Clear
6:53 AM 57.0 °F 21.0 °F 25% 29.84 in 10.0 mi East 8.1 mph - N/A   Clear
7:53 AM 62.1 °F 24.1 °F 23% 29.85 in 10.0 mi East 6.9 mph - N/A   Clear
8:53 AM 69.1 °F 23.0 °F 18% 29.84 in 10.0 mi East 9.2 mph - N/A   Clear
9:53 AM 75.0 °F 21.9 °F 14% 29.83 in 10.0 mi East 8.1 mph - N/A   Clear
10:53 AM 80.1 °F 21.9 °F 12% 29.83 in 10.0 mi Calm Calm - N/A   Clear
11:53 AM 84.0 °F 18.0 °F 9% 29.82 in 10.0 mi Calm Calm - N/A   Clear
12:53 PM 88.0 °F 9.0 °F 5% 29.79 in 10.0 mi WSW 10.4 mph 16.1 mph N/A   Clear
1:53 PM 88.0 °F 8.1 °F 5% 29.77 in 10.0 mi WSW 8.1 mph - N/A   Clear
2:53 PM 90.0 °F 1.9 °F 4% 29.75 in 10.0 mi South 10.4 mph 19.6 mph N/A   Clear
3:53 PM 90.0 °F 3.0 °F 4% 29.73 in 10.0 mi West 11.5 mph 21.9 mph N/A   Clear
4:53 PM 91.0 °F 7.0 °F 4% 29.73 in 10.0 mi West 13.8 mph 20.7 mph N/A   Clear
5:53 PM 89.1 °F 5.0 °F 4% 29.70 in 10.0 mi WNW 9.2 mph - N/A   Clear
6:53 PM 88.0 °F 3.9 °F 4% 29.69 in 10.0 mi WSW 5.8 mph - N/A   Clear
7:53 PM 86.0 °F 5.0 °F 5% 29.68 in 10.0 mi NW 4.6 mph - N/A   Clear
8:53 PM 82.9 °F 5.0 °F 5% 29.67 in 10.0 mi Calm Calm - N/A   Clear
9:53 PM 73.9 °F 12.9 °F 10% 29.69 in 10.0 mi West 4.6 mph - N/A   Clear
10:53 PM 73.0 °F 9.0 °F 8% 29.70 in 10.0 mi WNW 8.1 mph - N/A   Clear
11:53 PM 70.0 °F 10.9 °F 10% 29.71 in 10.0 mi West 6.9 mph - N/A   Clear